When you browse on this site, cookies collect data to enhance your experience and personalize the content and advertising you see.
Visit our Privacy Policy to learn more. By continuing to use the site, you agree to this use of cookies and data.

Météo par heure à Zhohovo

Ce jour, 6 Juillet, Lundi

Heure Température Précipitation Vent Pression Humidité
00:00 +20°C° 0 mm 1 m/s 742 mmHg 89%
01:00 +19°C° 0 mm 1 m/s 742 mmHg 90%
02:00 +19°C° 0 mm 1 m/s 742 mmHg 91%
03:00 +19°C° 0 mm 1 m/s 742 mmHg 92%
04:00 +19°C° 0 mm 1 m/s 742 mmHg 92%
05:00 +20°C° 0 mm 1 m/s 742 mmHg 92%
06:00 +19°C° 0 mm 2 m/s 742 mmHg 92%
07:00 +21°C° 0 mm 2 m/s 742 mmHg 88%
08:00 +23°C° 0 mm 2 m/s 742 mmHg 83%
09:00 +24°C° 0 mm 1 m/s 743 mmHg 78%
10:00 +25°C° 0 mm 1 m/s 743 mmHg 74%
11:00 +26°C° 0 mm 1 m/s 743 mmHg 70%
12:00 +27°C° 0 mm 1 m/s 743 mmHg 66%
13:00 +27°C° 0 mm 1 m/s 743 mmHg 64%
14:00 +28°C° 0 mm 1 m/s 742 mmHg 63%
15:00 +28°C° 0 mm 1 m/s 742 mmHg 61%
16:00 +28°C° 0 mm 1 m/s 742 mmHg 63%
17:00 +28°C° 0 mm 1 m/s 742 mmHg 65%
18:00 +26°C° 0 mm 0 m/s 741 mmHg 67%
19:00 +24°C° 0 mm 0 m/s 742 mmHg 70%
20:00 +25°C° 0 mm 1 m/s 742 mmHg 74%
21:00 +23°C° 0 mm 1 m/s 742 mmHg 77%
22:00 +23°C° 0 mm 1 m/s 742 mmHg 80%
23:00 +22°C° 0 mm 1 m/s 742 mmHg 82%

Demain, 7 Juillet, Mardi

Heure Température Précipitation Vent Pression Humidité
00:00 +22°C° 0 mm 1 m/s 742 mmHg 84%
01:00 +21°C° 0 mm 1 m/s 742 mmHg 86%
02:00 +20°C° 0 mm 2 m/s 741 mmHg 87%
03:00 +20°C° 0 mm 2 m/s 741 mmHg 89%
04:00 +20°C° 0 mm 2 m/s 741 mmHg 89%
05:00 +21°C° 0 mm 2 m/s 741 mmHg 90%
06:00 +21°C° 0 mm 2 m/s 741 mmHg 90%
07:00 +24°C° 0 mm 2 m/s 741 mmHg 86%
08:00 +25°C° 0 mm 2 m/s 741 mmHg 83%
09:00 +27°C° 0 mm 3 m/s 741 mmHg 80%
10:00 +28°C° 0 mm 3 m/s 741 mmHg 75%
11:00 +29°C° 0 mm 3 m/s 740 mmHg 71%
12:00 +30°C° 0 mm 4 m/s 740 mmHg 67%
13:00 +30°C° 0 mm 4 m/s 740 mmHg 67%
14:00 +32°C° 0 mm 4 m/s 740 mmHg 68%
15:00 +32°C° 0 mm 4 m/s 740 mmHg 68%
16:00 +31°C° 0 mm 3 m/s 739 mmHg 70%
17:00 +31°C° 0 mm 3 m/s 739 mmHg 72%
18:00 +31°C° 0 mm 3 m/s 739 mmHg 74%
19:00 +29°C° 0 mm 3 m/s 739 mmHg 76%
20:00 +27°C° 0 mm 3 m/s 739 mmHg 78%
21:00 +26°C° 0 mm 3 m/s 738 mmHg 80%
22:00 +25°C° 0 mm 3 m/s 738 mmHg 78%
23:00 +25°C° 0 mm 4 m/s 738 mmHg 77%

Après-demain, 8 Juillet, Mercredi

Heure Température Précipitation Vent Pression Humidité
00:00 +25°C° 0 mm 5 m/s 738 mmHg 75%
01:00 +23°C° 0 mm 4 m/s 738 mmHg 76%
02:00 +23°C° 0 mm 4 m/s 738 mmHg 78%
03:00 +23°C° 0 mm 4 m/s 737 mmHg 79%
04:00 +22°C° 0 mm 4 m/s 737 mmHg 78%
05:00 +22°C° 0 mm 4 m/s 737 mmHg 76%
06:00 +22°C° 0 mm 4 m/s 737 mmHg 75%
07:00 +23°C° 0 mm 5 m/s 737 mmHg 74%
08:00 +25°C° 0 mm 5 m/s 737 mmHg 73%
09:00 +26°C° 0 mm 5 m/s 737 mmHg 72%
10:00 +27°C° 0.1 mm 4 m/s 738 mmHg 70%
11:00 +29°C° 0.1 mm 3 m/s 738 mmHg 69%
12:00 +30°C° 0.1 mm 2 m/s 738 mmHg 67%
13:00 +30°C° 0.4 mm 2 m/s 738 mmHg 66%
14:00 +31°C° 0.4 mm 3 m/s 738 mmHg 66%
15:00 +31°C° 0.4 mm 3 m/s 738 mmHg 65%
16:00 +31°C° 0.3 mm 3 m/s 738 mmHg 67%
17:00 +31°C° 0.3 mm 2 m/s 738 mmHg 68%
18:00 +30°C° 0.3 mm 2 m/s 738 mmHg 70%
19:00 +28°C° 0.3 mm 2 m/s 738 mmHg 74%
20:00 +26°C° 0.3 mm 3 m/s 738 mmHg 79%
21:00 +23°C° 0.3 mm 4 m/s 738 mmHg 83%
22:00 +22°C° 1 mm 4 m/s 738 mmHg 86%
23:00 +22°C° 1 mm 3 m/s 738 mmHg 89%

9 Juillet, Jeudi

Heure Température Précipitation Vent Pression Humidité
00:00 +21°C° 1 mm 2 m/s 738 mmHg 91%
01:00 +21°C° 0.6 mm 2 m/s 738 mmHg 93%
02:00 +20°C° 0.6 mm 2 m/s 738 mmHg 94%
03:00 +20°C° 0.6 mm 3 m/s 737 mmHg 96%
04:00 +20°C° 0.6 mm 2 m/s 737 mmHg 96%
05:00 +20°C° 0.6 mm 2 m/s 737 mmHg 95%
06:00 +20°C° 0.6 mm 2 m/s 737 mmHg 95%
07:00 +21°C° 0.3 mm 2 m/s 737 mmHg 94%
08:00 +21°C° 0.3 mm 2 m/s 738 mmHg 94%
09:00 +21°C° 0.3 mm 2 m/s 738 mmHg 93%
10:00 +21°C° 1.2 mm 2 m/s 738 mmHg 93%
11:00 +21°C° 1.2 mm 2 m/s 738 mmHg 94%
12:00 +21°C° 1.2 mm 3 m/s 738 mmHg 95%
13:00 +20°C° 2.2 mm 3 m/s 738 mmHg 94%
14:00 +20°C° 2.2 mm 4 m/s 737 mmHg 93%
15:00 +20°C° 2.2 mm 4 m/s 737 mmHg 93%
16:00 +19°C° 2.2 mm 6 m/s 737 mmHg 94%
17:00 +16°C° 2.2 mm 8 m/s 737 mmHg 94%
18:00 +15°C° 2.2 mm 9 m/s 736 mmHg 95%
19:00 +15°C° 5.5 mm 9 m/s 736 mmHg 95%
20:00 +13°C° 5.5 mm 9 m/s 736 mmHg 95%
21:00 +13°C° 5.5 mm 9 m/s 736 mmHg 95%
22:00 +13°C° 7 mm 10 m/s 736 mmHg 95%
23:00 +12°C° 7 mm 10 m/s 737 mmHg 94%

10 Juillet, Vendredi

Heure Température Précipitation Vent Pression Humidité
00:00 +12°C° 7 mm 11 m/s 737 mmHg 94%
01:00 +12°C° 1.3 mm 10 m/s 737 mmHg 94%
02:00 +12°C° 1.3 mm 10 m/s 737 mmHg 93%
03:00 +12°C° 1.3 mm 10 m/s 738 mmHg 93%
04:00 +12°C° 1.8 mm 10 m/s 738 mmHg 93%
05:00 +12°C° 1.8 mm 10 m/s 738 mmHg 93%
06:00 +12°C° 1.8 mm 10 m/s 739 mmHg 93%
07:00 +11°C° 3.4 mm 10 m/s 739 mmHg 92%
08:00 +11°C° 3.4 mm 10 m/s 739 mmHg 92%
09:00 +11°C° 3.4 mm 10 m/s 739 mmHg 91%
10:00 +12°C° 3.8 mm 9 m/s 740 mmHg 90%
11:00 +12°C° 3.8 mm 8 m/s 740 mmHg 90%
12:00 +14°C° 3.8 mm 7 m/s 741 mmHg 89%
13:00 +14°C° 1.4 mm 7 m/s 741 mmHg 88%
14:00 +14°C° 1.4 mm 6 m/s 742 mmHg 87%
15:00 +14°C° 1.4 mm 5 m/s 742 mmHg 86%
16:00 +15°C° 0.2 mm 5 m/s 743 mmHg 85%
17:00 +17°C° 0.2 mm 4 m/s 744 mmHg 83%
18:00 +18°C° 0.2 mm 4 m/s 744 mmHg 82%
19:00 +17°C° 0.1 mm 4 m/s 745 mmHg 84%
20:00 +16°C° 0.1 mm 3 m/s 745 mmHg 85%
21:00 +15°C° 0.1 mm 2 m/s 745 mmHg 86%
22:00 +13°C° 0 mm 3 m/s 746 mmHg 86%
23:00 +12°C° 0 mm 3 m/s 746 mmHg 86%

11 Juillet, Samedi

Heure Température Précipitation Vent Pression Humidité
00:00 +12°C° 0 mm 4 m/s 746 mmHg 86%
01:00 +11°C° 0 mm 4 m/s 746 mmHg 87%
02:00 +11°C° 0 mm 4 m/s 747 mmHg 88%
03:00 +11°C° 0 mm 4 m/s 747 mmHg 89%
04:00 +11°C° 0 mm 4 m/s 747 mmHg 88%
05:00 +11°C° 0 mm 4 m/s 747 mmHg 88%
06:00 +12°C° 0 mm 3 m/s 748 mmHg 88%
07:00 +13°C° 0 mm 4 m/s 748 mmHg 85%
08:00 +15°C° 0 mm 4 m/s 748 mmHg 81%
09:00 +18°C° 0 mm 4 m/s 748 mmHg 77%
10:00 +19°C° 0 mm 4 m/s 748 mmHg 73%
11:00 +20°C° 0 mm 4 m/s 748 mmHg 69%
12:00 +21°C° 0 mm 4 m/s 748 mmHg 65%
13:00 +21°C° 0 mm 4 m/s 748 mmHg 65%
14:00 +21°C° 0 mm 4 m/s 748 mmHg 65%
15:00 +22°C° 0 mm 4 m/s 748 mmHg 65%
16:00 +21°C° 0 mm 3 m/s 748 mmHg 68%
17:00 +21°C° 0 mm 3 m/s 747 mmHg 71%
18:00 +21°C° 0 mm 2 m/s 747 mmHg 74%
19:00 +19°C° 0 mm 2 m/s 747 mmHg 77%
20:00 +18°C° 0 mm 2 m/s 747 mmHg 80%
21:00 +16°C° 0 mm 1 m/s 747 mmHg 83%
22:00 +16°C° 0 mm 1 m/s 747 mmHg 83%
23:00 +15°C° 0 mm 1 m/s 747 mmHg 84%
Voir plus